When you browse on this site, cookies collect data to enhance your experience and personalize the content and advertising you see.
Visit our Privacy Policy to learn more. By continuing to use the site, you agree to this use of cookies and data.
  • In Hungary
  • List of Countries
  • For 7 days
  • Water Temperature
  • Weather Map
  • News
  • Weather Widgets
  • user-avatar
    Login

    Hourly Weather Bogorodickoe

    Today, 22 October, Tuesday

    Time Temperature Precipitation Wind Pressure Humidity
    00:00 +12°C° 0 mm 3 mps 759 mmHg 65%
    01:00 +11°C° 0 mm 3 mps 759 mmHg 67%
    02:00 +11°C° 0 mm 3 mps 759 mmHg 69%
    03:00 +10°C° 0 mm 3 mps 759 mmHg 72%
    04:00 +10°C° 0 mm 3 mps 759 mmHg 74%
    05:00 +10°C° 0 mm 3 mps 759 mmHg 76%
    06:00 +9°C° 0 mm 3 mps 759 mmHg 79%
    07:00 +10°C° 0 mm 3 mps 759 mmHg 75%
    08:00 +11°C° 0 mm 3 mps 759 mmHg 71%
    09:00 +12°C° 0 mm 4 mps 759 mmHg 67%
    10:00 +14°C° 0 mm 4 mps 759 mmHg 59%
    11:00 +17°C° 0 mm 4 mps 759 mmHg 52%
    12:00 +19°C° 0 mm 4 mps 759 mmHg 44%
    13:00 +19°C° 0 mm 4 mps 759 mmHg 42%
    14:00 +19°C° 0 mm 4 mps 759 mmHg 41%
    15:00 +20°C° 0 mm 3 mps 759 mmHg 39%
    16:00 +18°C° 0 mm 3 mps 759 mmHg 44%
    17:00 +17°C° 0 mm 3 mps 758 mmHg 49%
    18:00 +14°C° 0 mm 3 mps 758 mmHg 54%
    19:00 +14°C° 0 mm 3 mps 758 mmHg 56%
    20:00 +13°C° 0 mm 3 mps 758 mmHg 58%
    21:00 +13°C° 0 mm 3 mps 759 mmHg 61%
    22:00 +13°C° 0 mm 2 mps 758 mmHg 62%
    23:00 +13°C° 0 mm 2 mps 758 mmHg 63%

    Tomorrow, 23 October, Wednesday

    Time Temperature Precipitation Wind Pressure Humidity
    00:00 +13°C° 0 mm 2 mps 758 mmHg 63%
    01:00 +13°C° 0 mm 2 mps 758 mmHg 64%
    02:00 +13°C° 0 mm 2 mps 758 mmHg 64%
    03:00 +13°C° 0 mm 2 mps 758 mmHg 64%
    04:00 +13°C° 0 mm 2 mps 758 mmHg 65%
    05:00 +12°C° 0 mm 2 mps 758 mmHg 66%
    06:00 +12°C° 0 mm 2 mps 758 mmHg 67%
    07:00 +13°C° 0 mm 2 mps 758 mmHg 63%
    08:00 +14°C° 0 mm 2 mps 759 mmHg 60%
    09:00 +15°C° 0 mm 2 mps 759 mmHg 56%
    10:00 +17°C° 0 mm 2 mps 759 mmHg 51%
    11:00 +18°C° 0 mm 2 mps 759 mmHg 45%
    12:00 +20°C° 0 mm 2 mps 758 mmHg 40%
    13:00 +20°C° 0 mm 2 mps 758 mmHg 38%
    14:00 +21°C° 0 mm 2 mps 758 mmHg 37%
    15:00 +21°C° 0 mm 2 mps 758 mmHg 35%
    16:00 +19°C° 0 mm 2 mps 758 mmHg 40%
    17:00 +18°C° 0 mm 2 mps 758 mmHg 44%
    18:00 +16°C° 0 mm 3 mps 758 mmHg 49%
    19:00 +16°C° 0 mm 3 mps 758 mmHg 50%
    20:00 +14°C° 0 mm 3 mps 758 mmHg 51%
    21:00 +13°C° 0 mm 3 mps 758 mmHg 52%
    22:00 +13°C° 0 mm 3 mps 758 mmHg 52%
    23:00 +14°C° 0 mm 2 mps 758 mmHg 52%

    Day after tomorrow, 24 October, Thursday

    Time Temperature Precipitation Wind Pressure Humidity
    00:00 +13°C° 0 mm 2 mps 758 mmHg 52%
    01:00 +13°C° 0 mm 2 mps 758 mmHg 55%
    02:00 +13°C° 0 mm 2 mps 757 mmHg 57%
    03:00 +12°C° 0 mm 2 mps 757 mmHg 59%
    04:00 +12°C° 0 mm 2 mps 757 mmHg 59%
    05:00 +12°C° 0 mm 2 mps 758 mmHg 59%
    06:00 +10°C° 0 mm 2 mps 758 mmHg 60%
    07:00 +11°C° 0 mm 3 mps 758 mmHg 56%
    08:00 +13°C° 0 mm 3 mps 758 mmHg 53%
    09:00 +14°C° 0 mm 3 mps 758 mmHg 49%
    10:00 +16°C° 0 mm 3 mps 758 mmHg 44%
    11:00 +18°C° 0 mm 4 mps 757 mmHg 39%
    12:00 +20°C° 0 mm 4 mps 757 mmHg 35%
    13:00 +20°C° 0 mm 4 mps 757 mmHg 34%
    14:00 +20°C° 0 mm 4 mps 757 mmHg 33%
    15:00 +21°C° 0 mm 3 mps 756 mmHg 32%
    16:00 +19°C° 0 mm 3 mps 756 mmHg 36%
    17:00 +18°C° 0 mm 3 mps 756 mmHg 40%
    18:00 +16°C° 0 mm 3 mps 756 mmHg 43%
    19:00 +14°C° 0 mm 3 mps 756 mmHg 46%
    20:00 +13°C° 0 mm 3 mps 756 mmHg 49%
    21:00 +13°C° 0 mm 3 mps 756 mmHg 52%
    22:00 +12°C° 0 mm 3 mps 756 mmHg 53%
    23:00 +12°C° 0 mm 3 mps 756 mmHg 55%

    25 October, Friday

    Time Temperature Precipitation Wind Pressure Humidity
    00:00 +11°C° 0 mm 3 mps 756 mmHg 57%
    01:00 +11°C° 0 mm 3 mps 756 mmHg 59%
    02:00 +11°C° 0 mm 3 mps 755 mmHg 61%
    03:00 +10°C° 0 mm 3 mps 755 mmHg 64%
    04:00 +10°C° 0 mm 3 mps 755 mmHg 65%
    05:00 +10°C° 0 mm 3 mps 755 mmHg 66%
    06:00 +10°C° 0 mm 4 mps 755 mmHg 67%
    07:00 +11°C° 0 mm 4 mps 755 mmHg 66%
    08:00 +12°C° 0 mm 4 mps 756 mmHg 65%
    09:00 +12°C° 0 mm 5 mps 756 mmHg 64%
    10:00 +14°C° 0 mm 5 mps 756 mmHg 58%
    11:00 +15°C° 0 mm 5 mps 756 mmHg 53%
    12:00 +17°C° 0 mm 5 mps 756 mmHg 48%
    13:00 +17°C° 0 mm 5 mps 756 mmHg 46%
    14:00 +19°C° 0 mm 5 mps 756 mmHg 44%
    15:00 +20°C° 0 mm 5 mps 756 mmHg 42%
    16:00 +17°C° 0 mm 5 mps 756 mmHg 45%
    17:00 +17°C° 0 mm 4 mps 756 mmHg 48%
    18:00 +15°C° 0 mm 4 mps 756 mmHg 51%
    19:00 +14°C° 0 mm 4 mps 756 mmHg 52%
    20:00 +13°C° 0 mm 4 mps 756 mmHg 53%
    21:00 +13°C° 0 mm 5 mps 756 mmHg 54%
    22:00 +12°C° 0 mm 4 mps 756 mmHg 55%
    23:00 +12°C° 0 mm 4 mps 756 mmHg 56%

    26 October, Saturday

    Time Temperature Precipitation Wind Pressure Humidity
    00:00 +12°C° 0 mm 4 mps 756 mmHg 57%
    01:00 +11°C° 0 mm 4 mps 756 mmHg 59%
    02:00 +11°C° 0 mm 4 mps 757 mmHg 60%
    03:00 +11°C° 0 mm 4 mps 757 mmHg 61%
    04:00 +10°C° 0 mm 4 mps 757 mmHg 63%
    05:00 +10°C° 0 mm 4 mps 757 mmHg 66%
    06:00 +10°C° 0 mm 4 mps 757 mmHg 68%
    07:00 +11°C° 0 mm 4 mps 757 mmHg 65%
    08:00 +12°C° 0 mm 5 mps 758 mmHg 62%
    09:00 +13°C° 0 mm 5 mps 758 mmHg 60%
    10:00 +15°C° 0 mm 6 mps 758 mmHg 52%
    11:00 +16°C° 0 mm 6 mps 758 mmHg 45%
    12:00 +18°C° 0 mm 7 mps 758 mmHg 38%
    13:00 +20°C° 0 mm 7 mps 758 mmHg 36%
    14:00 +20°C° 0 mm 7 mps 757 mmHg 34%
    15:00 +21°C° 0 mm 6 mps 757 mmHg 32%
    16:00 +19°C° 0 mm 6 mps 757 mmHg 35%
    17:00 +17°C° 0 mm 5 mps 757 mmHg 39%
    18:00 +15°C° 0 mm 4 mps 757 mmHg 42%
    19:00 +14°C° 0 mm 4 mps 757 mmHg 45%
    20:00 +14°C° 0 mm 4 mps 757 mmHg 48%
    21:00 +13°C° 0 mm 4 mps 757 mmHg 51%
    22:00 +13°C° 0 mm 4 mps 757 mmHg 55%
    23:00 +13°C° 0 mm 4 mps 756 mmHg 59%

    27 October, Sunday

    Time Temperature Precipitation Wind Pressure Humidity
    00:00 +12°C° 0 mm 4 mps 756 mmHg 63%
    01:00 +12°C° 0 mm 4 mps 756 mmHg 67%
    02:00 +11°C° 0 mm 3 mps 756 mmHg 72%
    03:00 +11°C° 0 mm 3 mps 756 mmHg 77%
    04:00 +10°C° 0 mm 3 mps 756 mmHg 79%
    05:00 +10°C° 0 mm 3 mps 756 mmHg 82%
    06:00 +10°C° 0 mm 3 mps 756 mmHg 84%
    07:00 +11°C° 0 mm 4 mps 756 mmHg 80%
    08:00 +12°C° 0 mm 4 mps 756 mmHg 76%
    09:00 +13°C° 0 mm 4 mps 756 mmHg 71%
    10:00 +14°C° 0 mm 4 mps 756 mmHg 66%
    11:00 +16°C° 0 mm 5 mps 755 mmHg 61%
    12:00 +17°C° 0 mm 5 mps 755 mmHg 55%
    13:00 +19°C° 0 mm 4 mps 754 mmHg 53%
    14:00 +19°C° 0 mm 4 mps 754 mmHg 51%
    15:00 +20°C° 0 mm 3 mps 753 mmHg 49%
    16:00 +18°C° 0 mm 3 mps 753 mmHg 54%
    17:00 +17°C° 0 mm 2 mps 753 mmHg 59%
    18:00 +16°C° 0 mm 1 mps 753 mmHg 64%
    19:00 +15°C° 0 mm 1 mps 753 mmHg 67%
    20:00 +15°C° 0 mm 1 mps 753 mmHg 69%
    21:00 +14°C° 0 mm 1 mps 753 mmHg 72%
    22:00 +14°C° 0 mm 1 mps 752 mmHg 73%
    23:00 +13°C° 0 mm 1 mps 752 mmHg 75%

    28 October, Monday

    Time Temperature Precipitation Wind Pressure Humidity
    00:00 +13°C° 0 mm 1 mps 752 mmHg 76%
    01:00 +13°C° 0 mm 1 mps 752 mmHg 78%
    02:00 +13°C° 0 mm 1 mps 752 mmHg 79%
    03:00 +12°C° 0 mm 2 mps 752 mmHg 80%
    04:00 +12°C° 0 mm 2 mps 752 mmHg 82%
    05:00 +12°C° 0 mm 2 mps 752 mmHg 84%
    06:00 +10°C° 0 mm 2 mps 752 mmHg 85%
    07:00 +12°C° 0 mm 2 mps 752 mmHg 80%
    08:00 +12°C° 0 mm 3 mps 752 mmHg 74%
    09:00 +13°C° 0 mm 3 mps 752 mmHg 69%
    10:00 +16°C° 0 mm 3 mps 752 mmHg 63%
    11:00 +17°C° 0 mm 4 mps 752 mmHg 58%
    12:00 +19°C° 0 mm 4 mps 752 mmHg 52%
    13:00 +19°C° 0 mm 4 mps 752 mmHg 51%
    14:00 +20°C° 0 mm 4 mps 752 mmHg 49%
    15:00 +20°C° 0 mm 4 mps 751 mmHg 47%
    16:00 +19°C° 0 mm 3 mps 751 mmHg 51%
    17:00 +18°C° 0 mm 3 mps 751 mmHg 56%
    18:00 +16°C° 0 mm 2 mps 751 mmHg 60%
    19:00 +16°C° 0 mm 2 mps 751 mmHg 61%
    20:00 +16°C° 0 mm 2 mps 752 mmHg 63%
    21:00 +14°C° 0 mm 3 mps 752 mmHg 65%
    22:00 +14°C° 0 mm 3 mps 752 mmHg 67%
    23:00 +13°C° 0 mm 3 mps 751 mmHg 68%
    Show more